Weather in Ahmetli

Turkey     38°31′02″N   27°56′18″E
temp.,
°C
wind,
m/s
gust,
m/s
humid.,
%
clouds,
%
prec.,
mm/h
press.,
hPa
HPBL,
m
28 february, sun
sun2800:00+10wsw22700 0.0 101822
03:00+8wsw22730 0.0 101822
06:00+7wsw22730 0.0 101922
09:00+7wsw23740 0.0 1020188
12:00+10wsw12620 0.0 1021514
15:00+14nw34500 0.0 10201280
18:00+11wnw34626 0.0 1021987
21:00+5w35766 0.0 1024131
1 march, mon
mon100:00+3wsw22760 0.0 102637
03:00+2sw01800 0.0 102526
06:00+1ese22800 0.0 102532
09:00+3e24740 0.0 1025310
12:00+6ne25510 0.0 1024737
15:00+10n23370 0.0 10211119
18:00+10wnw44490 0.0 1021915
21:00+5wsw33640 0.0 102462
2 march, tue
tue200:00+3wsw23700 0.0 102552
03:00+2wsw23840 0.0 102664
06:00+1sw12914 0.0 102626
09:00+3w11824 0.0 1027194
12:00+7ne145738 0.0 10261076
15:00+10nne574354 0.0 10251997
18:00+9n685598 0.1 10241392
21:00+4wsw227975 0.1 102635
3 march, wed
wed300:00+2wsw23850 0.0 102747
03:00+1ssw11900 0.0 102724
06:000sse119317 0.0 102628
09:00+1sse118727 0.0 1027211
12:00+6ene136127 0.0 1026561
15:00+10ssw014514 0.0 1024583
18:00+11wnw35520 0.0 1023381
21:00+6sw22700 0.0 102527
4 march, thu
thu400:00+4s11790 0.0 102622
03:00+3se22860 0.0 102523
06:00+2ese23880 0.0 102544
09:00+3ese24710 0.0 1024232
12:00+8ne33520 0.0 1022445
15:00+12nne12410 0.0 1020471
18:00+12nw11460 0.0 101986
21:00+8ssw11530 0.0 102022